#timestamp,LO_Frequency,Hit,StdDev 
1560416415.1,286046990.7,N
1560416416.0,286046990.7,N
1560416435.8,286046991.1,N
1560416455.6,286046989.1,N
1560416475.5,286046989.3,N
1560416495.3,286046990.0,N
1560416515.1,286046987.2,N
1560416535.8,286046988.0,N
1560416555.7,286046985.4,Y
1560416575.5,286046991.0,P
1560416595.3,286046990.8,P
1560416615.2,286046991.4,P
1560416635.0,286046991.3,Y
1560416635.9,286046991.3,P
1560416655.8,286046996.5,P
1560416675.6,286046999.6,N
1560416695.4,286046999.2,N
1560416715.2,286047000.6,N
1560416735.1,286047000.0,N
1560416736.0,286047000.0,N
1560416755.8,286047002.4,N
1560416775.6,286047001.6,N
1560416795.5,286046999.7,N
1560416815.3,286046999.8,N
1560416835.1,286047002.7,N
1560416855.9,286046999.9,N
1560416875.7,286047002.8,N
1560416895.5,286047002.3,N
1560416915.4,286047002.7,N
1560416935.2,286047001.8,N
1560416955.0,286047004.4,N
1560416955.9,286047004.4,N
1560416975.7,286047001.5,N
1560416995.6,286047000.3,N
1560417015.4,286047000.2,N
1560417035.2,286047000.9,N
1560417055.1,286047001.1,N
1560417056.0,286047001.1,N
1560417075.8,286046999.4,N
1560417095.6,286046997.2,N
1560417115.5,286046999.6,N
1560417135.3,286046997.8,N
1560417155.1,286046995.2,N
1560417175.9,286046996.4,N
1560417195.7,286046996.0,N
1560417215.5,286046996.4,N
1560417235.3,286046993.9,N
1560417255.2,286046994.1,N
1560417275.0,286046992.1,N
1560417275.9,286046992.1,N
1560417295.7,286046992.4,N
1560417315.6,286046992.9,N
1560417335.4,286046993.1,N
1560417355.2,286046990.2,N
1560417375.1,286046990.4,N
1560417376.0,286046990.4,N
1560417395.8,286046991.1,N
1560417415.6,286046989.2,N
1560417435.5,286046989.6,N
1560417455.3,286046987.3,N
1560417475.1,286046988.1,N
1560417495.9,286046988.7,N
1560417515.7,286046993.1,N
1560417535.5,286046993.2,N
1560417555.3,286046988.9,N
1560417575.2,286046989.4,N
1560417595.0,286046987.4,Y
1560417595.9,286046987.4,P
1560417615.7,286046994.7,N
1560417635.6,286046993.5,N
1560417655.4,286046994.1,N
1560417675.2,286046992.7,N
1560417695.1,286046992.7,Y
1560417696.0,286046992.7,P
1560417715.8,286046997.8,P
1560417735.6,286046997.2,N
1560417755.5,286046996.2,N
1560417775.3,286046996.4,N
1560417795.1,286046996.0,N
1560417815.9,286046994.3,N
1560417835.7,286046994.5,N
1560417855.5,286046994.7,Y
1560417875.4,286046998.5,P
1560417895.2,286046999.4,N
1560417915.0,286046999.4,N
1560417915.9,286046999.4,N
1560417935.8,286046996.8,N
1560417955.6,286046997.9,N
1560417975.4,286046995.3,Y
1560417995.3,286046999.1,P
1560418015.1,286046998.0,P
1560418016.0,286046998.0,P
1560418035.8,286046995.4,Y
1560418055.7,286046997.8,P
1560418075.5,286046996.8,P
1560418095.3,286046997.8,P
1560418115.2,286046997.9,Y
1560418135.9,286047000.7,P
1560418155.7,286046998.1,N
1560418175.6,286046998.1,N
1560418195.4,286046998.8,N
1560418215.2,286046998.8,N
1560418235.0,286046998.7,N
1560418235.9,286046998.7,N
1560418255.8,286046998.3,N
1560418275.6,286046997.4,Y
1560418295.4,286046999.1,P
1560418315.3,286046997.0,P
1560418335.1,286046998.9,N
1560418355.8,286046996.7,Y
1560418375.7,286046998.9,P
1560418395.5,286046996.5,P
1560418415.3,286046997.8,N
1560418435.2,286046997.1,Y
1560418455.0,286046998.8,P
1560418455.9,286046998.8,N
1560418475.7,286046998.3,P
1560418495.6,286047001.0,N
1560418515.4,286046999.9,N
1560418535.2,286046999.8,N
1560418555.1,286047000.3,N
1560418556.0,286047000.3,N
1560418575.8,286047000.1,N
1560418595.6,286047002.8,N
1560418615.5,286047000.4,N
1560418635.3,286047000.6,N
1560418655.1,286046998.1,N
1560418675.9,286046999.4,N
1560418695.7,286046996.6,N
1560418715.5,286046997.4,N
1560418735.3,286046995.5,Y
1560418755.2,286046995.0,P
1560418775.0,286046996.1,N
1560418775.9,286046996.1,N
1560418795.8,286046993.6,Y
1560418815.6,286046999.0,P
1560418835.4,286046999.1,N
1560418855.2,286046997.3,N
1560418875.1,286046997.4,N
1560418876.0,286046997.4,N
1560418895.8,286046995.7,Y
1560418915.6,286046997.1,P
1560418935.5,286046996.5,P
1560418955.3,286046997.4,P
1560418975.1,286046996.9,Y
1560418995.9,286047001.0,P
1560419015.7,286047000.0,N
1560419035.5,286046999.8,N
1560419055.4,286047001.5,N
1560419075.2,286047004.2,N
1560419095.0,286047003.3,N
1560419095.9,286047003.3,N
1560419115.8,286047003.7,N
1560419135.6,286047006.0,N
1560419155.4,286047003.3,N
1560419175.3,286047005.0,N
1560419195.1,286047005.8,N
1560419196.0,286047005.8,N
1560419215.8,286047005.6,N
1560419235.6,286047003.2,N
1560419255.5,286047004.3,N
1560419275.3,286047001.7,N
1560419295.1,286047004.0,N
1560419315.9,286047004.1,N
1560419335.7,286047007.6,Y
1560419355.5,286047001.5,P
1560419375.4,286046999.7,N
1560419395.2,286047000.8,N
1560419415.0,286047000.9,N
1560419415.9,286047000.9,N
1560419435.8,286047000.6,N
1560419455.6,286046998.2,N
1560419475.4,286047000.0,N
1560419495.3,286046999.7,N
1560419515.1,286047002.8,N
1560419516.0,286047002.8,N
1560419535.8,286047001.0,N
1560419555.7,286046999.9,N
1560419575.5,286047001.0,N
1560419595.3,286046998.1,N
1560419615.1,286046998.8,N
1560419635.9,286046998.1,N
1560419655.7,286047000.0,N
1560419675.5,286047002.1,N
1560419695.4,286047002.8,N
1560419715.2,286047002.5,N
1560419735.0,286047001.8,N
1560419735.9,286047001.8,N
1560419755.8,286047002.7,N
1560419775.6,286047002.6,N
1560419795.4,286047002.2,N
1560419815.2,286047002.6,N
1560419835.1,286047000.6,N
1560419836.0,286047000.6,N
1560419855.8,286046998.7,N
1560419875.6,286047000.5,N
1560419895.5,286046998.4,N
1560419915.3,286046998.6,N
1560419935.1,286046998.9,N
1560419955.9,286046996.7,N
1560419975.7,286046998.7,N
1560419995.5,286046998.5,N
